EW2175 Weather Reports


time (UTC)temp
C
wind
direction
speed
KPH
gust
KPH
rain 1hr
cm
rain 24hr
cm
rain mn
cm
humidity
%
barometer
mb
20260904044530 17 81 0.0 0.0 0.00 0.00 0.00 71 1018.1
20260904043029 17 90 0.0 6.4 0.00 0.00 0.00 71 1018.1
20260904041526 17 93 0.0 4.8 0.00 0.00 0.00 71 1018.1
20260904040026 17 92 0.0 1.6 0.00 0.00 0.00 71 1018.3
20260904034528 17 95 0.0 4.8 0.00 0.00 0.00 70 1018.5
20260904033021 17 90 0.0 4.8 0.00 0.00 0.00 70 1018.7
20260904031519 17 83 0.0 0.0 0.00 0.00 0.00 69 1018.7
20260904030019 17 100 0.0 4.8 0.00 0.00 0.00 69 1018.7
20260904024520 18 61 1.6 6.4 0.00 0.00 0.00 69 1018.8
20260904023024 18 80 0.0 4.8 0.00 0.00 0.00 68 1019.0
20260904021522 18 70 0.0 4.8 0.00 0.00 0.00 68 1019.1
20260904020012 18 98 0.0 4.8 0.00 0.00 0.00 68 1019.2
20260904014511 18 91 0.0 0.0 0.00 0.00 0.00 68 1019.2
20260904013009 18 91 0.0 0.0 0.00 0.00 0.00 68 1019.3
20260904011506 18 91 0.0 1.6 0.00 0.00 0.00 68 1019.4
20260904010004 18 84 0.0 4.8 0.00 0.00 0.00 67 1019.5
20260904004502 18 86 0.0 4.8 0.00 0.00 0.00 66 1019.6
20260904003102 19 80 0.0 6.4 0.00 0.00 0.00 65 1019.8
20260904001555 20 260 0.0 0.0 0.00 0.00 0.00 63 1019.9
20260904000137 20 261 0.0 0.0 0.00 0.00 0.00 61 1020.0
20260903234551 21 260 0.0 0.0 0.00 0.00 0.00 59 1020.0
20260903233046 21 260 0.0 0.0 0.00 0.00 0.00 58 1019.8
20260903231547 21 260 0.0 0.0 0.00 0.00 0.00 57 1019.9
20260903230039 22 209 0.0 0.0 0.00 0.00 0.00 54 1019.9
20260903224545 22 209 0.0 1.6 0.00 0.00 0.00 52 1020.0
20260903223035 23 188 0.0 4.8 0.00 0.00 0.00 51 1019.9
20260903221534 23 229 0.0 11.3 0.00 0.00 0.00 51 1019.9
20260903220033 23 199 3.2 8.0 0.00 0.00 0.00 51 1019.8
20260903214536 23 203 0.0 6.4 0.00 0.00 0.00 51 1019.9
20260903213036 23 192 0.0 8.0 0.00 0.00 0.00 50 1020.0
20260903211538 23 219 0.0 6.4 0.00 0.00 0.00 50 1019.9
20260903210031 23 201 0.0 8.0 0.00 0.00 0.00 49 1020.1
20260903204529 24 223 1.6 6.4 0.00 0.00 0.00 48 1020.1
20260903203037 24 173 1.6 9.7 0.00 0.00 0.00 47 1020.0
20260903201528 24 154 0.0 6.4 0.00 0.00 0.00 47 1020.1
20260903200030 24 190 3.2 11.3 0.00 0.00 0.00 47 1020.1
20260903194543 24 190 3.2 14.5 0.00 0.00 0.00 47 1020.0
20260903193026 24 168 1.6 11.3 0.00 0.00 0.00 47 1020.0
20260903191537 24 184 4.8 9.7 0.00 0.00 0.00 47 1019.9
20260903190025 25 174 0.0 6.4 0.00 0.00 0.00 46 1019.8
20260903184525 25 169 0.0 11.3 0.00 0.00 0.00 46 1019.8
20260903183024 25 189 0.0 9.7 0.00 0.00 0.00 46 1019.6
20260903181536 25 191 1.6 8.0 0.00 0.00 0.00 45 1019.4
20260903180023 26 215 0.0 8.0 0.00 0.00 0.00 44 1019.2
20260903174522 26 182 1.6 12.9 0.00 0.00 0.00 43 1019.0
20260903173021 26 257 3.2 12.9 0.00 0.00 0.00 42 1019.0
20260903171532 27 184 6.4 17.7 0.00 0.00 0.00 40 1018.9
20260903170024 27 215 3.2 16.1 0.00 0.00 0.00 39 1018.9
20260903164520 27 192 6.4 17.7 0.00 0.00 0.00 38 1018.9
20260903163023 28 211 6.4 17.7 0.00 0.00 0.00 38 1018.8
20260903161519 28 126 3.2 17.7 0.00 0.00 0.00 38 1018.9
20260903160017 28 192 6.4 16.1 0.00 0.00 0.00 36 1018.9
20260903154516 28 159 4.8 16.1 0.00 0.00 0.00 35 1019.0
20260903153015 29 181 3.2 14.5 0.00 0.00 0.00 34 1019.1
20260903151515 30 173 1.6 16.1 0.00 0.00 0.00 33 1019.1
20260903150011 29 253 1.6 16.1 0.00 0.00 0.00 34 1019.2
20260903144509 29 207 8.0 20.9 0.00 0.00 0.00 33 1019.3
20260903143007 28 157 4.8 16.1 0.00 0.00 0.00 33 1019.3
20260903141504 28 212 4.8 17.7 0.00 0.00 0.00 34 1019.5
20260903140015 28 118 3.2 17.7 0.00 0.00 0.00 33 1019.6
20260903134502 28 155 4.8 19.3 0.00 0.00 0.00 33 1019.6
20260903133002 28 145 11.3 22.5 0.00 0.00 0.00 32 1019.6
20260903131501 28 171 6.4 22.5 0.00 0.00 0.00 32 1019.7
20260903130059 29 138 3.2 22.5 0.00 0.00 0.00 33 1019.5
20260903124602 28 195 6.4 20.9 0.00 0.00 0.00 35 1019.7
20260903123053 28 269 3.2 16.1 0.00 0.00 0.00 35 1019.6
20260903121554 28 284 12.9 24.1 0.00 0.00 0.00 35 1019.6
20260903120051 27 263 1.6 24.1 0.00 0.00 0.00 36 1019.8
20260903114604 27 164 4.8 19.3 0.00 0.00 0.00 36 1020.2
20260903113042 27 209 3.2 14.5 0.00 0.00 0.00 38 1020.4
20260903111548 26 227 3.2 17.7 0.00 0.00 0.00 39 1020.5
20260903110044 27 183 3.2 19.3 0.00 0.00 0.00 38 1020.8
20260903104539 27 185 9.7 17.7 0.00 0.00 0.00 38 1020.9
20260903103047 27 236 1.6 16.1 0.00 0.00 0.00 36 1021.0
20260903101543 26 198 0.0 16.1 0.00 0.00 0.00 38 1021.0
20260903100036 26 221 4.8 17.7 0.00 0.00 0.00 41 1021.2
20260903094528 25 229 8.0 20.9 0.00 0.00 0.00 42 1021.1
20260903093051 25 261 6.4 16.1 0.00 0.00 0.00 43 1021.1
20260903091522 25 180 8.0 17.7 0.00 0.00 0.00 48 1021.3
20260903090018 23 256 1.6 14.5 0.00 0.00 0.00 52 1021.4
20260903084513 23 248 1.6 11.3 0.00 0.00 0.00 54 1021.2
20260903083009 22 156 1.6 9.7 0.00 0.00 0.00 57 1021.3
20260903081510 22 217 1.6 11.3 0.00 0.00 0.00 59 1021.1
20260903080003 21 208 3.2 9.7 0.00 0.00 0.00 60 1021.5
20260903074557 20 237 1.6 8.0 0.00 0.00 0.00 62 1021.6
20260903073053 19 177 0.0 4.8 0.00 0.00 0.00 64 1021.2
20260903071616 18 78 0.0 0.0 0.00 0.00 0.00 66 1021.2
20260903070100 17 78 0.0 0.0 0.00 0.00 0.00 70 1021.2
20260903064545 16 57 0.0 0.0 0.00 0.00 0.00 73 1021.2
20260903063045 16 106 0.0 0.0 0.00 0.00 0.00 74 1021.3
20260903061544 15 107 0.0 6.4 0.00 0.00 0.00 75 1021.3
20260903060043 15 90 0.0 9.7 0.00 0.00 0.00 76 1021.4
20260903054545 15 157 0.0 0.0 0.00 0.00 0.00 76 1021.5
20260903053038 15 162 0.0 0.0 0.00 0.00 0.00 77 1021.2
20260903051538 15 162 0.0 0.0 0.00 0.00 0.00 77 1021.2
20260903050040 15 163 0.0 0.0 0.00 0.00 0.00 76 1021.0